^^
Cohasset Weather Station Historical Data
 
Daily Summary for December 07, 2019 Units:  English    Metric   Both
Daily Weekly Monthly Yearly Custom
  Current: High: Low: Average:
Temperature: 46.2 °F 46.2 °F 45.9 °F 46 °F
Dew Point: 45.9 °F 45.9 °F 45.6 °F 45.7 °F
Humidity: 99% 99% 99% 99%
Wind Speed: 3mph 6mph 1mph 3.1mph
Wind Gust: 6mph 9mph - -
WindSouth - - SSW
Pressure: 29.75 in 29.76 in 29.75 in -
Precipitation: 0.31 in      
Historical Graphs
 
 
Tabular Data for December 07, 2019
Time Temperature Dew Point Pressure Wind Wind Speed Wind Gust Humidity Rainfall Rate (Hourly) solar
00:00 45.9 °F 45.6 °F 29.75 in South 3 mph 5 mph 99% 0.02 in WeatherDisplay:10.37 W/m2
00:05 45.9 °F 45.6 °F 29.75 in SSE 2 mph 6 mph 99% 0.03 in WeatherDisplay:10.37 W/m2
00:10 45.9 °F 45.6 °F 29.76 in SSE 2 mph 5 mph 99% 0.02 in WeatherDisplay:10.37 W/m2
00:15 45.9 °F 45.6 °F 29.76 in SSE 5 mph 7 mph 99% 0.02 in WeatherDisplay:10.37 W/m2
00:20 45.9 °F 45.6 °F 29.76 in SSE 3 mph 7 mph 99% 0 in WeatherDisplay:10.37 W/m2
00:25 45.9 °F 45.6 °F 29.75 in South 2 mph 6 mph 99% 0.01 in WeatherDisplay:10.37 W/m2
00:30 46 °F 45.7 °F 29.75 in South 3 mph 6 mph 99% 0.01 in WeatherDisplay:10.37 W/m2
00:35 46 °F 45.7 °F 29.75 in South 5 mph 6 mph 99% 0.01 in WeatherDisplay:10.37 W/m2
00:40 46 °F 45.7 °F 29.75 in South 3 mph 7 mph 99% 0.01 in WeatherDisplay:10.37 W/m2
00:45 46 °F 45.7 °F 29.75 in South 5 mph 6 mph 99% 0.01 in WeatherDisplay:10.37 W/m2
00:50 46 °F 45.7 °F 29.75 in South 1 mph 7 mph 99% 0.01 in WeatherDisplay:10.37 W/m2
00:55 46 °F 45.7 °F 29.75 in SW 3 mph 7 mph 99% 0.02 in WeatherDisplay:10.37 W/m2
01:00 46 °F 45.7 °F 29.75 in SW 3 mph 8 mph 99% 0.01 in WeatherDisplay:10.37 W/m2
01:05 46 °F 45.7 °F 29.75 in SSW 3 mph 6 mph 99% 0.01 in WeatherDisplay:10.37 W/m2
01:10 46 °F 45.7 °F 29.75 in SSW 1 mph 8 mph 99% 0.02 in WeatherDisplay:10.37 W/m2
01:15 46 °F 45.7 °F 29.75 in South 2 mph 6 mph 99% 0.02 in WeatherDisplay:10.37 W/m2
01:20 46 °F 45.7 °F 29.75 in South 2 mph 6 mph 99% 0 in WeatherDisplay:10.37 W/m2
01:25 46 °F 45.7 °F 29.75 in SSW 3 mph 8 mph 99% 0.02 in WeatherDisplay:10.37 W/m2
01:30 46 °F 45.7 °F 29.75 in SSW 3 mph 8 mph 99% 0 in WeatherDisplay:10.37 W/m2
01:35 46 °F 45.7 °F 29.75 in SSW 3 mph 8 mph 99% 0.01 in WeatherDisplay:10.37 W/m2
01:40 46 °F 45.7 °F 29.75 in SW 2 mph 6 mph 99% 0.01 in WeatherDisplay:10.37 W/m2
01:45 46 °F 45.7 °F 29.75 in SSW 3 mph 6 mph 99% 0.01 in WeatherDisplay:10.37 W/m2
01:50 46 °F 45.7 °F 29.75 in SSW 6 mph 9 mph 99% 0.01 in WeatherDisplay:10.37 W/m2
01:55 46 °F 45.7 °F 29.75 in SSW 3 mph 6 mph 99% 0.01 in WeatherDisplay:10.37 W/m2
02:00 46 °F 45.7 °F 29.75 in SSW 3 mph 5 mph 99% 0.01 in WeatherDisplay:10.37 W/m2
02:05 46.2 °F 45.9 °F 29.75 in SW 3 mph 5 mph 99% 0.01 in WeatherDisplay:10.37 W/m2
02:10 46.2 °F 45.9 °F 29.75 in SSW 5 mph 8 mph 99% 0.01 in WeatherDisplay:10.37 W/m2
02:15 46.2 °F 45.9 °F 29.75 in SW 5 mph 9 mph 99% 0 in WeatherDisplay:10.37 W/m2
02:20 46.2 °F 45.9 °F 29.75 in South 3 mph 9 mph 99% 0 in WeatherDisplay:10.37 W/m2
02:25 46.2 °F 45.9 °F 29.75 in South 3 mph 6 mph 99% 0 in WeatherDisplay:10.37 W/m2
Cohasset, California, USA
Compliments of Weather Underground - 1.25 mb